QPF
0.05 0.06 0.06 0.08 0.08 0.07 0.06 0.04 0.04 0.05 0.05 0.05 0.05 0.08 0.08 0.08 0.08 0.08 0.08 0.09 0.09 0.08 0.08 0.06 0.06 0.05 0.06 0.06 0.06 0.06 0.07 0.08 0.08 0.08 0.08 0.07 0.08 0.07 0.07 0.05 0.04 0.05 0.03
0.04 0.06 0.07 0.08 0.07 0.06 0.04 0.04 0.04 0.05 0.06 0.06 0.05 0.08 0.08 0.08 0.08 0.07 0.06 0.06 0.07 0.08 0.08 0.08 0.07 0.07 0.08 0.07 0.07 0.07 0.06 0.07 0.08 0.07 0.07 0.09 0.08 0.08 0.09 0.09 0.06 0.05 0.05
0.03 0.05 0.07 0.07 0.08 0.08 0.06 0.06 0.07 0.07 0.06 0.06 0.07 0.09 0.09 0.08 0.08 0.07 0.07 0.07 0.07 0.08 0.08 0.08 0.08 0.08 0.08 0.08 0.07 0.06 0.06 0.06 0.07 0.06 0.06 0.08 0.08 0.08 0.10 0.11 0.10 0.09 0.06
0.04 0.04 0.06 0.07 0.10 0.13 0.10 0.08 0.08 0.08 0.07 0.06 0.08 0.09 0.07 0.06 0.06 0.06 0.06 0.07 0.08 0.08 0.07 0.06 0.06 0.06 0.06 0.06 0.05 0.05 0.06 0.07 0.07 0.06 0.06 0.06 0.07 0.08 0.10 0.11 0.12 0.12 0.10
0.06 0.07 0.09 0.09 0.11 0.14 0.14 0.12 0.10 0.08 0.06 0.07 0.07 0.07 0.06 0.06 0.05 0.04 0.04 0.05 0.07 0.08 0.07 0.05 0.04 0.05 0.05 0.04 0.03 0.04 0.05 0.06 0.06 0.07 0.07 0.07 0.07 0.08 0.08 0.09 0.10 0.12 0.14
0.06 0.09 0.10 0.10 0.11 0.12 0.12 0.10 0.09 0.08 0.07 0.07 0.07 0.06 0.05 0.04 0.05 0.05 0.03 0.03 0.04 0.06 0.07 0.06 0.04 0.04 0.02 0.02 0.02 0.03 0.03 0.04 0.05 0.07 0.07 0.06 0.07 0.07 0.07 0.07 0.08 0.10 0.12
0.05 0.04 0.04 0.06 0.07 0.08 0.07 0.07 0.08 0.09 0.09 0.08 0.08 0.06 0.05 0.05 0.04 0.04 0.04 0.03 0.04 0.06 0.08 0.07 0.05 0.03 0.02 0.03 0.03 0.03 0.03 0.03 0.04 0.04 0.06 0.05 0.05 0.06 0.08 0.08 0.09 0.11 0.12
0.05 0.05 0.05 0.06 0.06 0.06 0.06 0.07 0.08 0.09 0.08 0.09 0.07 0.06 0.06 0.07 0.06 0.05 0.04 0.05 0.06 0.07 0.08 0.07 0.07 0.05 0.03 0.03 0.03 0.04 0.05 0.05 0.04 0.04 0.05 0.05 0.04 0.05 0.06 0.06 0.07 0.09 0.10
0.04 0.04 0.04 0.04 0.04 0.06 0.07 0.08 0.08 0.07 0.06 0.05 0.06 0.07 0.07 0.07 0.06 0.04 0.04 0.06 0.07 0.07 0.04 0.04 0.05 0.04 0.03 0.03 0.03 0.04 0.05 0.05 0.03 0.02 0.02 0.02 0.02 0.02 0.03 0.04 0.06 0.07 0.07
0.03 0.03 0.03 0.04 0.04 0.05 0.08 0.10 0.09 0.07 0.05 0.05 0.06 0.07 0.07 0.07 0.06 0.04 0.04 0.05 0.05 0.05 0.04 0.04 0.03 0.02 0.03 0.03 0.04 0.05 0.05 0.05 0.04 0.03 0.02 0.02 0.02 0.03 0.03 0.05 0.06 0.07 0.07
0.03 0.03 0.04 0.05 0.06 0.06 0.07 0.08 0.08 0.07 0.05 0.05 0.06 0.06 0.06 0.06 0.04 0.03 0.03 0.03 0.03 0.04 0.03 0.03 0.02 0.02 0.03 0.03 0.03 0.03 0.03 0.03 0.04 0.05 0.05 0.04 0.04 0.05 0.06 0.06 0.07 0.07 0.06
0.04 0.04 0.05 0.05 0.04 0.06 0.07 0.07 0.05 0.05 0.05 0.04 0.05 0.04 0.05 0.05 0.03 0.03 0.02 0.02 0.02 0.03 0.04 0.03 0.03 0.03 0.03 0.03 0.03 0.01 0.01 0.01 0.03 0.05 0.06 0.05 0.05 0.04 0.04 0.04 0.04 0.05 0.05
0.06 0.05 0.05 0.05 0.05 0.06 0.06 0.05 0.03 0.04 0.04 0.05 0.05 0.04 0.04 0.04 0.04 0.03 0.02 0.02 0.01 0.02 0.03 0.03 0.03 0.03 0.04 0.04 0.03 0.02 0.02 0.03 0.04 0.05 0.05 0.04 0.03 0.03 0.02 0.03 0.03 0.04 0.04
0.04 0.04 0.04 0.05 0.05 0.05 0.05 0.04 0.04 0.03 0.05 0.05 0.05 0.04 0.04 0.04 0.04 0.03 0.02 0.02 0.02 0.01 0.01 0.02 0.02 0.03 0.03 0.03 0.03 0.03 0.03 0.03 0.03 0.03 0.03 0.03 0.02 0.02 0.02 0.02 0.03 0.03 0.04
0.05 0.04 0.03 0.03 0.04 0.04 0.04 0.04 0.03 0.03 0.04 0.04 0.03 0.04 0.04 0.04 0.04 0.03 0.02 0.01 0.01 0.01 0.01 0.02 0.02 0.02 0.02 0.02 0.02 0.02 0.02 0.02 0.02 0.02 0.02 0.02 0.02 0.02 0.02 0.02 0.02 0.02 0.03
0.04 0.04 0.03 0.03 0.04 0.04 0.04 0.03 0.02 0.02 0.02 0.02 0.02 0.02 0.03 0.04 0.03 0.03 0.02 0.01 0.01 0.01 0.01 0.02 0.02 0.02 0.03 0.03 0.02 0.01 0.01 0.01 0.01 0.01 0.01 0.01 0.01 0.02 0.02 0.02 0.02 0.02 0.03
0.04 0.03 0.03 0.03 0.03 0.03 0.03 0.03 0.03 0.03 0.03 0.03 0.02 0.02 0.02 0.02 0.03 0.03 0.02 0.01 0.01 0.01 0.01 0.02 0.02 0.02 0.03 0.03 0.03 0.02 0.01 0.01 0.01 0.01 0.01 0.01 0.02 0.02 0.02 0.02 0.02 0.03 0.03
0.03 0.02 0.02 0.02 0.02 0.02 0.02 0.03 0.03 0.03 0.05 0.04 0.04 0.03 0.02 0.02 0.02 0.02 0.02 0.01 0.01 0.01 0.01 0.02 0.03 0.03 0.03 0.03 0.04 0.04 0.03 0.03 0.02 0.02 0.02 0.02 0.02 0.02 0.02 0.02 0.02 0.02 0.02
0.02 0.01 0.01 0.02 0.02 0.02 0.02 0.03 0.03 0.03 0.04 0.04 0.05 0.03 0.02 0.01 0.01 0.01 0.01 0.01 0.01 0.01 0.01 0.02 0.02 0.03 0.02 0.02 0.03 0.03 0.03 0.03 0.04 0.04 0.04 0.03 0.03 0.04 0.03 0.03 0.02 0.02 0.02
0.01 0.01 0.01 0.01 0.01 0.02 0.02 0.03 0.04 0.04 0.04 0.03 0.04 0.04 0.04 0.02 0.00 0.00 0.00 0.01 0.02 0.02 0.02 0.02 0.01 0.01 0.02 0.02 0.03 0.03 0.03 0.03 0.05 0.06 0.06 0.06 0.06 0.06 0.05 0.04 0.03 0.02 0.02
0.01 0.01 0.01 0.01 0.01 0.03 0.03 0.05 0.06 0.05 0.05 0.05 0.04 0.04 0.04 0.02 0.01 0.01 0.01 0.01 0.02 0.02 0.02 0.01 0.01 0.01 0.01 0.02 0.02 0.03 0.04 0.04 0.04 0.04 0.04 0.04 0.04 0.04 0.04 0.03 0.03 0.03 0.03
0.02 0.02 0.01 0.01 0.02 0.04 0.05 0.08 0.07 0.05 0.06 0.05 0.05 0.04 0.05 0.03 0.02 0.02 0.02 0.02 0.02 0.02 0.02 0.02 0.02 0.02 0.01 0.01 0.01 0.01 0.02 0.02 0.03 0.03 0.04 0.03 0.03 0.02 0.02 0.02 0.02 0.02 0.02
0.01 0.01 0.01 0.02 0.04 0.06 0.07 0.06 0.05 0.04 0.05 0.05 0.05 0.05 0.04 0.03 0.03 0.03 0.03 0.03 0.02 0.02 0.04 0.04 0.02 0.01 0.01 0.01 0.02 0.02 0.02 0.01 0.01 0.01 0.02 0.02 0.03 0.02 0.01 0.01 0.02 0.02 0.02
0.01 0.01 0.01 0.02 0.04 0.06 0.06 0.04 0.03 0.02 0.03 0.05 0.06 0.06 0.05 0.05 0.05 0.05 0.05 0.04 0.03 0.03 0.04 0.02 0.01 0.01 0.02 0.03 0.03 0.02 0.01 0.01 0.01 0.01 0.01 0.02 0.02 0.02 0.01 0.01 0.01 0.01 0.01
0.01 0.00 0.01 0.01 0.03 0.04 0.04 0.03 0.02 0.02 0.03 0.03 0.05 0.06 0.05 0.05 0.06 0.06 0.06 0.04 0.03 0.04 0.03 0.02 0.02 0.03 0.02 0.02 0.01 0.01 0.01 0.02 0.02 0.01 0.01 0.02 0.02 0.01 0.01 0.01 0.01 0.01 0.01
0.01 0.02 0.03 0.05 0.04 0.03 0.02 0.02 0.01 0.02 0.02 0.02 0.03 0.04 0.04 0.04 0.04 0.04 0.04 0.04 0.05 0.05 0.03 0.02 0.01 0.01 0.01 0.01 0.01 0.01 0.01 0.01 0.02 0.02 0.02 0.01 0.01 0.01 0.01 0.01 0.01 0.00 0.01
MSLP
1001.25 1001.18 1001.18 1001.24 1001.28 1001.30 1001.26 1001.16 1001.02 1000.86 1000.74 1000.68 1000.72 1000.88 1001.16 1001.57 1002.07 1002.64 1003.25 1003.87 1004.46 1005.01 1005.52 1005.98 1006.42 1006.84 1007.28 1007.73 1008.22 1008.74 1009.29 1009.85 1010.41 1010.93 1011.41 1011.82 1012.15 1012.42 1012.60 1012.73 1012.81 1012.86 1012.88
1000.04 999.95 999.99 1000.11 1000.27 1000.40 1000.48 1000.49 1000.44 1000.34 1000.26 1000.24 1000.31 1000.51 1000.86 1001.34 1001.93 1002.60 1003.30 1003.99 1004.63 1005.20 1005.70 1006.12 1006.50 1006.86 1007.22 1007.63 1008.09 1008.61 1009.19 1009.80 1010.41 1011.00 1011.52 1011.97 1012.32 1012.56 1012.70 1012.76 1012.75 1012.70 1012.62
998.68 998.55 998.62 998.81 999.07 999.34 999.56 999.70 999.77 999.78 999.79 999.83 999.96 1000.22 1000.64 1001.19 1001.86 1002.62 1003.41 1004.17 1004.87 1005.47 1005.97 1006.38 1006.72 1007.03 1007.34 1007.71 1008.13 1008.64 1009.21 1009.82 1010.46 1011.06 1011.60 1012.06 1012.39 1012.61 1012.70 1012.70 1012.63 1012.50 1012.34
997.25 997.08 997.15 997.41 997.78 998.17 998.54 998.84 999.05 999.20 999.32 999.45 999.67 1000.01 1000.49 1001.11 1001.86 1002.69 1003.55 1004.38 1005.14 1005.78 1006.31 1006.73 1007.06 1007.35 1007.64 1007.96 1008.36 1008.82 1009.37 1009.96 1010.57 1011.16 1011.68 1012.10 1012.41 1012.60 1012.66 1012.62 1012.49 1012.32 1012.12
995.90 995.68 995.75 996.05 996.50 997.01 997.52 997.97 998.34 998.64 998.89 999.14 999.46 999.87 1000.42 1001.10 1001.91 1002.80 1003.71 1004.60 1005.41 1006.10 1006.68 1007.12 1007.48 1007.78 1008.06 1008.37 1008.73 1009.16 1009.66 1010.20 1010.75 1011.28 1011.76 1012.14 1012.40 1012.55 1012.59 1012.52 1012.39 1012.20 1011.99
994.80 994.52 994.57 994.89 995.40 996.00 996.64 997.22 997.74 998.17 998.56 998.92 999.34 999.83 1000.44 1001.18 1002.02 1002.95 1003.90 1004.82 1005.68 1006.42 1007.04 1007.54 1007.94 1008.27 1008.56 1008.87 1009.21 1009.60 1010.04 1010.51 1010.98 1011.44 1011.84 1012.16 1012.38 1012.50 1012.52 1012.46 1012.34 1012.16 1011.97
994.11 993.78 993.80 994.11 994.64 995.31 996.02 996.71 997.34 997.89 998.40 998.87 999.38 999.94 1000.60 1001.37 1002.23 1003.17 1004.14 1005.08 1005.96 1006.75 1007.42 1007.96 1008.41 1008.78 1009.11 1009.42 1009.74 1010.09 1010.46 1010.86 1011.25 1011.62 1011.94 1012.19 1012.36 1012.46 1012.48 1012.43 1012.33 1012.20 1012.05
993.99 993.61 993.59 993.88 994.40 995.07 995.81 996.56 997.26 997.90 998.49 999.05 999.62 1000.24 1000.94 1001.72 1002.59 1003.52 1004.47 1005.41 1006.30 1007.10 1007.80 1008.39 1008.88 1009.29 1009.64 1009.97 1010.28 1010.59 1010.90 1011.22 1011.53 1011.81 1012.04 1012.23 1012.36 1012.44 1012.46 1012.44 1012.38 1012.30 1012.20
994.53 994.11 994.04 994.27 994.75 995.38 996.11 996.86 997.58 998.27 998.91 999.53 1000.15 1000.80 1001.52 1002.30 1003.14 1004.04 1004.96 1005.88 1006.74 1007.54 1008.24 1008.85 1009.36 1009.80 1010.17 1010.50 1010.79 1011.07 1011.33 1011.58 1011.81 1012.00 1012.17 1012.30 1012.39 1012.45 1012.48 1012.48 1012.47 1012.44 1012.38
995.70 995.27 995.15 995.31 995.71 996.27 996.94 997.64 998.35 999.03 999.69 1000.33 1000.98 1001.64 1002.35 1003.11 1003.93 1004.78 1005.64 1006.50 1007.32 1008.08 1008.76 1009.35 1009.86 1010.30 1010.68 1011.00 1011.28 1011.53 1011.74 1011.94 1012.10 1012.23 1012.34 1012.42 1012.48 1012.52 1012.56 1012.58 1012.60 1012.61 1012.60
997.42 996.99 996.82 996.91 997.22 997.68 998.25 998.88 999.53 1000.18 1000.82 1001.45 1002.09 1002.75 1003.44 1004.17 1004.94 1005.72 1006.52 1007.30 1008.04 1008.73 1009.36 1009.91 1010.40 1010.82 1011.18 1011.48 1011.74 1011.96 1012.15 1012.30 1012.42 1012.50 1012.56 1012.61 1012.64 1012.67 1012.71 1012.74 1012.78 1012.82 1012.85
999.53 999.11 998.91 998.93 999.14 999.49 999.95 1000.48 1001.04 1001.63 1002.22 1002.83 1003.44 1004.08 1004.74 1005.42 1006.12 1006.84 1007.54 1008.23 1008.88 1009.48 1010.03 1010.52 1010.96 1011.34 1011.66 1011.95 1012.18 1012.39 1012.55 1012.68 1012.76 1012.82 1012.86 1012.88 1012.90 1012.92 1012.94 1012.98 1013.03 1013.08 1013.12
1001.81 1001.42 1001.20 1001.16 1001.28 1001.53 1001.88 1002.30 1002.77 1003.28 1003.81 1004.36 1004.94 1005.54 1006.14 1006.77 1007.40 1008.03 1008.64 1009.23 1009.77 1010.28 1010.74 1011.14 1011.51 1011.84 1012.13 1012.38 1012.60 1012.79 1012.94 1013.06 1013.14 1013.20 1013.23 1013.24 1013.24 1013.25 1013.27 1013.30 1013.34 1013.38 1013.43
1004.04 1003.68 1003.47 1003.39 1003.44 1003.60 1003.86 1004.18 1004.56 1004.98 1005.45 1005.94 1006.46 1007.00 1007.55 1008.11 1008.66 1009.20 1009.72 1010.20 1010.64 1011.04 1011.40 1011.73 1012.03 1012.30 1012.55 1012.77 1012.98 1013.16 1013.32 1013.45 1013.54 1013.60 1013.64 1013.65 1013.65 1013.65 1013.65 1013.67 1013.70 1013.73 1013.77
1006.03 1005.72 1005.53 1005.44 1005.45 1005.54 1005.72 1005.97 1006.27 1006.62 1007.00 1007.43 1007.88 1008.36 1008.84 1009.33 1009.80 1010.25 1010.67 1011.06 1011.40 1011.70 1011.98 1012.23 1012.46 1012.68 1012.90 1013.11 1013.31 1013.50 1013.66 1013.81 1013.92 1014.00 1014.05 1014.08 1014.08 1014.08 1014.07 1014.07 1014.08 1014.11 1014.14
1007.65 1007.40 1007.24 1007.16 1007.16 1007.22 1007.36 1007.54 1007.78 1008.06 1008.38 1008.74 1009.12 1009.52 1009.93 1010.34 1010.73 1011.10 1011.43 1011.73 1011.99 1012.22 1012.42 1012.61 1012.79 1012.98 1013.17 1013.37 1013.58 1013.78 1013.96 1014.13 1014.27 1014.37 1014.44 1014.48 1014.49 1014.49 1014.48 1014.47 1014.47 1014.48 1014.50
1008.87 1008.68 1008.56 1008.51 1008.52 1008.58 1008.69 1008.84 1009.03 1009.26 1009.52 1009.80 1010.12 1010.45 1010.78 1011.11 1011.43 1011.72 1011.98 1012.21 1012.40 1012.58 1012.73 1012.88 1013.04 1013.20 1013.38 1013.58 1013.79 1014.00 1014.21 1014.40 1014.56 1014.69 1014.78 1014.83 1014.85 1014.86 1014.84 1014.83 1014.82 1014.83 1014.85
1009.74 1009.61 1009.54 1009.53 1009.56 1009.63 1009.74 1009.87 1010.03 1010.21 1010.42 1010.64 1010.89 1011.15 1011.41 1011.67 1011.92 1012.14 1012.35 1012.52 1012.68 1012.82 1012.94 1013.07 1013.22 1013.38 1013.56 1013.76 1013.98 1014.21 1014.43 1014.63 1014.81 1014.95 1015.06 1015.12 1015.15 1015.15 1015.14 1015.13 1015.12 1015.12 1015.14
1010.36 1010.28 1010.25 1010.27 1010.33 1010.42 1010.53 1010.66 1010.79 1010.94 1011.10 1011.28 1011.47 1011.66 1011.86 1012.06 1012.25 1012.43 1012.59 1012.74 1012.87 1012.99 1013.11 1013.24 1013.38 1013.55 1013.74 1013.94 1014.17 1014.40 1014.64 1014.85 1015.03 1015.18 1015.28 1015.35 1015.38 1015.39 1015.38 1015.36 1015.36 1015.36 1015.39
1010.84 1010.79 1010.79 1010.84 1010.92 1011.02 1011.14 1011.26 1011.38 1011.50 1011.63 1011.77 1011.91 1012.06 1012.20 1012.36 1012.50 1012.65 1012.79 1012.91 1013.04 1013.16 1013.28 1013.42 1013.58 1013.75 1013.95 1014.16 1014.39 1014.63 1014.85 1015.06 1015.24 1015.38 1015.48 1015.54 1015.57 1015.58 1015.56 1015.55 1015.54 1015.55 1015.58
1011.27 1011.23 1011.25 1011.31 1011.40 1011.50 1011.62 1011.73 1011.84 1011.94 1012.05 1012.15 1012.26 1012.37 1012.48 1012.60 1012.73 1012.85 1012.98 1013.10 1013.22 1013.35 1013.49 1013.64 1013.81 1013.99 1014.20 1014.41 1014.64 1014.87 1015.08 1015.28 1015.45 1015.58 1015.67 1015.72 1015.74 1015.73 1015.72 1015.70 1015.68 1015.69 1015.71
1011.70 1011.66 1011.68 1011.72 1011.80 1011.90 1012.00 1012.10 1012.19 1012.28 1012.37 1012.45 1012.54 1012.63 1012.72 1012.83 1012.94 1013.06 1013.18 1013.30 1013.43 1013.57 1013.72 1013.88 1014.06 1014.25 1014.46 1014.67 1014.90 1015.12 1015.32 1015.50 1015.65 1015.77 1015.85 1015.89 1015.89 1015.88 1015.85 1015.82 1015.80 1015.80 1015.80
1012.14 1012.08 1012.06 1012.09 1012.14 1012.21 1012.29 1012.37 1012.45 1012.53 1012.60 1012.68 1012.75 1012.83 1012.92 1013.02 1013.13 1013.24 1013.36 1013.50 1013.63 1013.78 1013.93 1014.10 1014.28 1014.48 1014.68 1014.90 1015.11 1015.32 1015.52 1015.69 1015.83 1015.94 1016.00 1016.04 1016.04 1016.01 1015.98 1015.94 1015.90 1015.88 1015.86
1012.53 1012.44 1012.40 1012.38 1012.40 1012.43 1012.48 1012.54 1012.60 1012.66 1012.73 1012.80 1012.88 1012.96 1013.05 1013.15 1013.26 1013.37 1013.49 1013.62 1013.76 1013.90 1014.06 1014.23 1014.41 1014.60 1014.81 1015.02 1015.23 1015.44 1015.63 1015.80 1015.94 1016.05 1016.12 1016.15 1016.15 1016.12 1016.08 1016.02 1015.97 1015.93 1015.90
1012.81 1012.70 1012.62 1012.56 1012.53 1012.53 1012.55 1012.58 1012.62 1012.68 1012.74 1012.81 1012.89 1012.98 1013.07 1013.17 1013.28 1013.39 1013.51 1013.63 1013.76 1013.90 1014.05 1014.22 1014.39 1014.58 1014.79 1015.00 1015.22 1015.44 1015.64 1015.82 1015.97 1016.08 1016.16 1016.20 1016.21 1016.18 1016.14 1016.08 1016.01 1015.94 1015.88
1012.93 1012.80 1012.68 1012.59 1012.53 1012.49 1012.48 1012.49 1012.52 1012.56 1012.63 1012.70 1012.78 1012.87 1012.97 1013.07 1013.18 1013.28 1013.39 1013.50 1013.62 1013.75 1013.89 1014.05 1014.22 1014.42 1014.62 1014.84 1015.07 1015.30 1015.52 1015.71 1015.88 1016.02 1016.12 1016.17 1016.19 1016.18 1016.13 1016.06 1015.99 1015.90 1015.82
Thickness
5663 5661 5659 5658 5657 5656 5655 5655 5656 5655 5655 5655 5655 5654 5652 5652 5651 5649 5646 5644 5642 5640 5639 5637 5635 5634 5633 5632 5631 5630 5629 5627 5624 5628 5630 5632 5633 5633 5633 5635 5636 5637 5638
5659 5657 5655 5654 5653 5652 5652 5652 5653 5652 5652 5652 5651 5650 5649 5648 5646 5644 5642 5641 5638 5636 5634 5632 5631 5630 5627 5625 5624 5623 5622 5622 5619 5618 5622 5623 5625 5627 5627 5628 5630 5631 5632
5655 5653 5651 5650 5650 5649 5649 5650 5650 5650 5649 5649 5648 5646 5644 5643 5641 5640 5638 5636 5634 5632 5630 5628 5627 5624 5622 5620 5619 5618 5617 5617 5615 5613 5615 5617 5618 5620 5620 5621 5623 5624 5626
5651 5649 5647 5647 5647 5646 5647 5646 5646 5646 5646 5645 5644 5642 5640 5639 5637 5635 5633 5632 5630 5628 5627 5625 5623 5621 5618 5617 5615 5613 5612 5611 5610 5609 5608 5610 5611 5613 5613 5613 5614 5616 5616
5647 5645 5644 5644 5644 5643 5643 5643 5642 5643 5643 5641 5639 5638 5636 5634 5632 5629 5627 5627 5626 5624 5623 5621 5620 5618 5616 5614 5612 5609 5607 5605 5604 5603 5602 5602 5603 5603 5604 5607 5606 5608 5608
5644 5642 5641 5640 5639 5639 5640 5639 5639 5639 5638 5637 5635 5633 5631 5630 5627 5625 5622 5622 5622 5621 5619 5618 5617 5615 5613 5611 5608 5605 5603 5600 5598 5597 5597 5596 5596 5597 5599 5599 5599 5599 5600
5642 5640 5640 5639 5637 5636 5636 5635 5635 5634 5634 5633 5631 5630 5628 5625 5623 5621 5619 5618 5618 5618 5617 5615 5615 5614 5610 5607 5605 5602 5599 5596 5595 5593 5591 5591 5592 5593 5593 5593 5593 5593 5593
5639 5638 5638 5636 5635 5634 5633 5632 5631 5631 5630 5629 5628 5627 5625 5622 5620 5618 5617 5616 5616 5615 5615 5613 5610 5608 5606 5602 5601 5598 5595 5593 5593 5591 5590 5589 5589 5589 5588 5588 5588 5588 5589
5636 5636 5636 5634 5633 5632 5630 5629 5629 5628 5627 5627 5626 5625 5623 5620 5617 5616 5614 5615 5613 5613 5612 5610 5608 5604 5600 5597 5596 5593 5591 5590 5589 5588 5587 5587 5586 5585 5584 5583 5582 5581 5580
5634 5634 5634 5633 5631 5630 5629 5628 5628 5627 5626 5626 5626 5624 5622 5619 5616 5614 5612 5612 5611 5610 5609 5607 5604 5600 5597 5593 5591 5589 5587 5586 5586 5586 5585 5584 5583 5583 5582 5580 5579 5577 5575
5633 5633 5632 5631 5630 5630 5629 5628 5627 5626 5625 5625 5624 5623 5621 5619 5615 5613 5611 5609 5608 5607 5605 5603 5600 5597 5594 5591 5588 5586 5584 5582 5582 5582 5582 5582 5581 5580 5579 5577 5576 5574 5571
5632 5631 5630 5630 5630 5631 5628 5627 5626 5625 5624 5623 5621 5620 5620 5618 5615 5612 5609 5606 5604 5602 5601 5599 5597 5594 5591 5588 5586 5584 5582 5580 5580 5579 5579 5578 5577 5576 5575 5575 5574 5572 5571
5630 5629 5629 5629 5628 5628 5627 5626 5625 5624 5622 5621 5621 5619 5618 5617 5614 5610 5606 5604 5601 5599 5598 5596 5593 5590 5588 5586 5585 5582 5580 5579 5577 5576 5575 5574 5574 5573 5572 5571 5570 5569 5567
5628 5627 5627 5626 5625 5626 5625 5625 5624 5622 5621 5621 5619 5618 5616 5614 5611 5608 5605 5602 5599 5596 5594 5593 5590 5589 5587 5585 5583 5582 5580 5578 5576 5573 5572 5571 5570 5569 5567 5566 5564 5563 5561
5625 5624 5624 5624 5624 5624 5623 5622 5622 5619 5618 5616 5616 5615 5612 5609 5605 5601 5599 5598 5596 5593 5590 5590 5589 5589 5588 5585 5583 5582 5580 5577 5574 5571 5568 5566 5565 5563 5562 5561 5559 5558 5555
5622 5622 5623 5623 5623 5623 5623 5621 5619 5618 5616 5614 5612 5610 5608 5605 5602 5599 5596 5594 5591 5589 5587 5588 5588 5587 5586 5584 5582 5580 5578 5575 5572 5568 5565 5563 5560 5559 5557 5556 5554 5551 5549
5620 5620 5620 5621 5622 5623 5623 5622 5620 5618 5614 5612 5609 5607 5605 5602 5599 5596 5593 5590 5589 5586 5586 5587 5586 5585 5583 5582 5580 5577 5575 5572 5569 5565 5562 5559 5557 5555 5552 5550 5547 5545 5543
5621 5620 5620 5620 5621 5622 5623 5622 5622 5619 5615 5613 5609 5605 5603 5599 5596 5593 5590 5588 5589 5588 5587 5586 5584 5583 5581 5579 5576 5574 5571 5569 5565 5562 5558 5555 5553 5550 5547 5545 5543 5540 5538
5620 5620 5620 5621 5621 5622 5622 5622 5621 5619 5617 5614 5611 5607 5602 5598 5593 5590 5588 5588 5589 5588 5587 5585 5583 5581 5578 5576 5574 5571 5568 5565 5562 5558 5555 5552 5549 5546 5544 5541 5539 5536 5534
5619 5618 5617 5619 5620 5621 5621 5619 5618 5617 5616 5614 5611 5608 5603 5598 5596 5593 5590 5589 5588 5586 5585 5583 5581 5579 5577 5574 5572 5568 5565 5562 5558 5555 5552 5549 5545 5542 5540 5537 5535 5532 5530
5618 5619 5617 5618 5619 5619 5618 5616 5616 5616 5615 5613 5611 5609 5603 5601 5599 5597 5594 5590 5587 5585 5583 5581 5579 5577 5574 5572 5569 5565 5562 5558 5555 5551 5548 5545 5542 5538 5535 5532 5530 5528 5525
5615 5616 5618 5618 5618 5617 5616 5615 5615 5614 5614 5612 5611 5609 5604 5603 5601 5599 5596 5592 5589 5586 5583 5580 5577 5574 5571 5568 5564 5561 5557 5553 5550 5547 5544 5541 5538 5534 5531 5528 5525 5522 5519
5612 5613 5614 5615 5615 5614 5614 5614 5614 5613 5613 5613 5612 5610 5606 5604 5601 5598 5595 5592 5589 5585 5582 5579 5575 5571 5568 5564 5561 5557 5552 5548 5544 5541 5538 5536 5533 5530 5527 5524 5521 5518 5515
5610 5610 5610 5611 5611 5611 5611 5611 5612 5613 5613 5612 5609 5608 5606 5603 5600 5597 5594 5591 5588 5584 5581 5578 5574 5569 5565 5561 5557 5552 5547 5543 5539 5537 5534 5531 5529 5526 5523 5520 5517 5515 5512
5607 5608 5608 5608 5608 5609 5609 5609 5610 5610 5610 5609 5608 5606 5605 5602 5599 5596 5593 5590 5586 5582 5579 5576 5572 5567 5563 5558 5553 5548 5543 5539 5535 5532 5530 5528 5525 5522 5520 5517 5514 5511 5508
5605 5606 5606 5606 5606 5606 5607 5608 5608 5608 5607 5607 5607 5605 5603 5601 5598 5594 5591 5588 5584 5581 5577 5574 5570 5565 5561 5556 5550 5545 5541 5537 5533 5530 5527 5524 5521 5519 5516 5514 5511 5508 5505